{"data":{"norad_id":51895,"epoch":"2026-05-24T21:49:13.302336Z","epoch_age_seconds":86892,"freshness":"FRESH","line1":"1 51895U 22022AV  26144.90918174  .00000677  00000+0  60639-4 0  9999","line2":"2 51895  53.2150  16.9558 0001514 104.6433 255.4727 15.08837304234754","mean_motion":15.08837304,"eccentricity":0.0001514,"inclination_deg":53.215,"raan_deg":16.9558,"arg_perigee_deg":104.6433,"mean_anomaly_deg":255.4727,"bstar":6.0639e-5,"rev_number":23475,"period_min":95.43772520619,"perigee_km":538.7042612313,"apogee_km":540.79899790834,"semimajor_km":6917.8886295698,"source":"CELESTRAK","updated_at":"2026-05-25T13:38:16.989549Z"}}